Location: Beadle
(51.4667°N, 109.0000°W)
Time: 05:15:40
(UTC+00:00)

Altair - Pass Details

Date: 28 May 2022
Orbit: 1501 x 1682 km, 47.2° (Epoch: 30 June)

Event Time Altitude Azimuth Distance (km) Brightness Sun altitude
Rises 21:49:27 0° 201° (SSW) 4,795 10.6 47.5°
Reaches altitude 10° 21:53:02 10° 191° (SSW) 3,840 10.1 47.0°
Maximum altitude 22:01:01 29° 136° (SE) 2,678 9.0 46.0°
Drops below altitude 10° 22:09:10 10° 82° (E) 3,939 9.3 44.8°
Sets 22:12:53 0° 72° (ENE) 4,938 9.7 44.3°
